sat.trackr.live / text

‹ back to catalog

STARLINK-30413

NORAD 57814 · 2023-138G

PAYLOAD ACTIVE UNKNOWN

§ Identity

Operator
Country
US
Launch date
2023-09-09
Launch site
AFETR
Launch vehicle
Mass (kg)
RCS (m²)

Purposes: comms

External: N2YO · Heavens-Above · Gunter

§ Orbital elements

Epoch: 2026-09-19T23:00:52.647552Z

Period
94.27 min
Inclination
43.0010°
Eccentricity
0.0001296
Mean motion
15.27569032 rev/d
Perigee alt
482.2 km
Apogee alt
484.0 km
Semi-major
6,861.2 km
B*
6.5805e-5
RAAN
217.5378°
Arg perigee
274.7709°
Mean anomaly
85.2994°
Rev number
16,844

§ Raw data

STARLINK-304131 57814U 23138G   26262.95894268  .00001549  00000+0  65805-4 0  99972 57814  43.0010 217.5378 0001296 274.7709  85.2994 15.27569032168442

JSON: /api/v1/satellites/57814 · /tle

For live sub-satellite position, see the globe view (requires WebGL).

§ Visibility from observer

Set your observer location to see the next 7 days of passes ≥ 10°. The values pass through the URL so the page stays shareable.

No JS? Fill the form by hand. The geolocation button needs JavaScript.